Location: Compans
(48.9946°N, 2.6645°E)
Time: 15:36:32
(UTC+00:00)

Daily predictions for brighter satellites

Satellite Brightness Start Highest point End
(mag) Time Altitude Azimuth Time Altitude Azimuth Time Altitude Azimuth
CENTAUR R/B 4.1 20:37:30 10° ESE 20:38:51 11° E 20:40:17 10° E
Cosmos 1862 Rocket 3.6 20:36:21 10° S 20:40:46 89° W 20:45:16 10° N
Cosmos 1703 Rocket 4.5 20:37:11 10° SSE 20:41:09 32° E 20:45:06 10° NNE
Cosmos 1356 Rocket 4.1 20:37:01 10° SSW 20:41:09 59° WNW 20:45:19 10° N
Okean O Rocket 3.6 20:40:23 10° SSW 20:44:05 27° W 20:47:48 10° NW
USA 245 3.9 20:41:25 10° SSE 20:45:50 78° ENE 20:51:19 10° NNW
Cosmos 2208 Rocket 4.2 20:41:11 10° NNW 20:46:20 60° ENE 20:51:25 10° SE
Cosmos 371 Rocket 4.4 20:43:51 10° SSE 20:47:43 25° E 20:51:36 10° NE
Ariane Rocket 3.2 20:45:04 10° SSE 20:50:05 64° ENE 20:55:09 10° N
Cosmos 1242 Rocket 2.6 20:47:46 10° SSE 20:50:14 33° E 20:52:43 10° NNE
CZ-4C R/B 2.4 20:46:11 10° S 20:50:15 36° ESE 20:55:13 10° NE
Cosmos 2228 Rocket 4.0 20:46:04 10° SSW 20:50:33 55° WNW 20:55:03 10° N
Meteor 1-4 Rocket 2.3 20:48:10 10° SSW 20:51:09 73° W 20:54:11 10° N
Terra 1.8 20:50:35 10° SSE 20:55:18 84° ENE 21:00:02 10° NNW
Iridium 51 4.4 20:56:09 10° S 21:00:20 69° E 21:04:17 10° N
MOS 1 Rocket 3.6 20:55:25 10° SSE 21:00:42 81° ENE 21:05:48 10° N
Cosmos 2360 Rocket 4.2 20:58:18 10° NW 21:02:40 23° WSW 21:07:00 10° SSW
Cosmos 1953 2.2 21:01:35 10° N 21:05:25 87° W 21:09:13 10° S
USA 234 3.9 21:01:40 10° ENE 21:07:18 30° SE 21:12:55 10° S
COSMOS 2428 2.8 21:01:35 10° NNW 21:07:18 78° WSW 21:12:53 11° SSE
SPOT 5 4.0 21:06:53 10° SSW 21:10:57 37° W 21:15:12 10° NNW
Cosmos 304 Rocket 4.5 21:09:55 10° SSE 21:14:11 34° ESE 21:18:29 10° NE
BREEZE-M DEB (TANK) 2.8 21:13:29 10° W 21:15:56 85° N 21:21:29 10° E
BlueWalker 3 2.8 21:18:25 10° W 21:22:06 52° NNW 21:25:47 10° ENE
ERS-1 Rocket 3.9 21:22:23 10° S 21:27:11 45° W 21:32:01 10° NNW
Cosmos 1315 Rocket 3.8 21:24:00 10° SSW 21:27:51 47° WNW 21:31:45 10° N
SL-4 R/B 3.3 21:26:36 10° W 21:29:50 25° SW 21:32:19 15° S
Cosmos 2084 Rocket 3.4 21:29:41 10° SSW 21:33:56 62° SE 21:38:02 10° NE
Cosmos 1408 2.4 21:32:50 19° SSE 21:34:40 45° E 21:37:35 10° NNE
Cosmos 773 Rocket 4.0 21:29:40 10° NNW 21:34:51 78° ENE 21:39:00 16° SSE
Cosmos 1908 Rocket 4.2 21:31:16 10° NNW 21:35:29 51° W 21:39:39 10° S
BREEZE-M DEB (TANK) 4.2 21:34:06 10° W 21:38:41 89° N 21:58:50 10° E
Cosmos 2242 Rocket 4.0 21:35:53 16° SSE 21:39:21 48° E 21:43:45 10° NNE
Cosmos 1782 Rocket 3.5 21:35:18 10° N 21:39:39 88° WSW 21:43:07 16° S
BREEZE-M DEB (TANK) 3.8 21:39:00 10° WSW 21:40:51 21° SSW 21:41:57 17° S
Cosmos 1300 Rocket 3.5 21:38:56 10° N 21:43:18 85° E 21:46:34 17° S
Cosmos 1709 Rocket 4.3 21:38:03 14° SSE 21:43:24 53° E 21:49:31 10° NNE
SL-16 R/B 3.4 21:39:40 10° NNW 21:44:52 35° NE 21:50:00 10° ESE
Cosmos 2237 Rocket 2.2 21:40:14 10° NNW 21:45:56 89° ENE 21:50:16 18° SSE
NOSS 3-2 (A) 4.4 21:48:36 17° SE 21:50:41 22° ESE 21:55:02 10° ENE
Cosmos 2227 Rocket 2.8 21:47:45 16° SSE 21:51:42 37° ESE 21:56:52 10° NE
SJ 16-02 4.3 21:54:58 10° W 21:57:43 16° NW 22:00:30 10° N
H-2A R/B 3.9 21:56:06 14° ESE 21:58:51 27° ENE 22:02:23 10° N
Cosmos 1455 4.2 21:56:20 10° NW 21:59:02 21° W 22:01:43 10° SW
Cosmos 1980 3.8 21:54:57 10° NNW 22:00:37 69° WSW 22:04:42 19° SSE
EXPRESS MD2 2.1 21:59:01 10° W 22:01:20 45° SSW 22:01:35 42° S
GP-B 3.1 21:59:03 10° N 22:03:29 81° W 22:06:48 17° S
Meteor 2-5 Rocket 4.0 21:59:20 17° S 22:03:42 57° E 22:09:20 10° NNE
Landsat 5 3.7 21:59:50 10° N 22:03:58 70° WNW 22:08:06 11° SSW
Cosmos 1777 Rocket 4.0 22:01:00 13° S 22:05:45 69° ESE 22:11:01 10° NNE
ARIANE 5 R/B 2.9 22:03:45 21° SE 22:06:27 57° ENE 22:10:45 10° N
SeaSat 1 3.3 22:04:02 16° S 22:07:33 41° WSW 22:12:12 10° NW
Cosmos 1825 3.6 22:06:41 18° ESE 22:07:36 20° E 22:10:10 10° NE
COSMOS 2455 3.3 22:01:54 10° SW 22:07:53 64° NW 22:13:55 10° NNE
Cosmos 1174 4.3 22:04:19 10° NW 22:08:57 52° WSW 22:11:05 24° S
Cosmos 2297 Rocket 2.2 22:04:46 10° SSW 22:10:26 90° E 22:16:08 10° NNE
Cosmos 1703 3.0 22:10:39 23° S 22:12:49 81° E 22:16:31 10° NNE
Cosmos 1503 Rocket 4.1 22:12:06 10° SSW 22:17:26 83° WNW 22:22:44 10° NNE
NOSS 8 (A) 4.5 22:16:48 10° NW 22:19:47 59° SW 22:21:11 31° SSE
SL-23 DEB 4.4 22:22:17 10° SW 22:26:15 64° SSE 22:33:03 10° ENE
Cosmos 1461 4.0 22:26:32 23° ESE 22:26:49 23° ESE 22:29:56 10° ENE
Cosmos 2219 3.8 22:23:58 23° SSE 22:26:50 39° ESE 22:32:00 10° NE
CENTAUR R/B 2.5 22:22:27 12° SSW 22:27:38 62° ESE 22:34:33 10° NE
Cosmos 371 Rocket 4.2 22:23:06 10° SW 22:27:45 47° WNW 22:32:26 10° NNE
Cosmos 1818 4.1 22:23:03 10° NNW 22:28:28 55° NE 22:32:53 15° ESE
Cosmos 2263 Rocket 3.2 22:27:07 22° SE 22:29:24 29° ESE 22:34:09 10° NE
Cosmos 2151 Rocket 3.6 22:27:10 10° N 22:31:33 70° E 22:33:47 28° SSE
Cosmos 1892 3.0 22:31:14 32° SE 22:32:21 44° E 22:35:44 10° NNE
Terra 4.3 22:31:18 10° WSW 22:33:31 13° W 22:35:46 10° WNW
Okean 2 Rocket 3.2 22:31:29 10° N 22:35:59 71° ENE 22:38:18 28° SSE
Meteor 1-24 Rocket 3.7 22:32:42 18° SSW 22:37:05 81° WNW 22:42:35 10° N
CZ-4C R/B 3.2 22:33:53 10° WSW 22:38:28 45° NW 22:44:15 10° NE
ALOS 2 3.0 22:46:36 26° SE 22:48:50 54° ENE 22:53:08 10° N
Cosmos 1898 Rocket 4.4 22:48:08 24° SE 22:50:07 32° ESE 22:54:41 10° NE
Cosmos 405 Rocket 3.4 22:46:44 10° NNW 22:50:21 43° W 22:51:59 26° SSW
USA 234 3.2 22:44:17 10° ENE 22:50:53 86° SE 22:57:26 10° SW
Cosmos 292 Rocket 4.3 22:49:43 28° SSE 22:51:37 42° ESE 22:56:10 10° NE
H-2A R/B 3.8 22:53:12 10° NE 22:55:55 17° E 22:57:02 15° ESE
PSLV R/B 3.9 22:52:14 10° N 22:56:14 75° WNW 22:58:17 27° SSW
USA 281 3.3 22:56:14 24° SSE 23:00:24 74° WSW 23:07:01 10° NNW
BlueWalker 3 3.0 22:57:05 10° WNW 23:00:41 44° N 23:04:18 10° E
MINOTAUR 4 R/B 3.9 22:58:26 10° N 23:01:18 57° WNW 23:02:07 39° SW
Cosmos 2074 Rocket 4.0 22:58:51 25° S 23:02:35 72° E 23:08:48 10° NNE
Cosmos 2181 Rocket 4.2 22:59:24 10° NNW 23:05:30 65° W 23:09:14 24° SSW
CZ-2C R/B 4.5 23:01:35 10° N 23:05:50 47° WNW 23:09:05 17° SW
Aureole 1 Rocket 3.3 23:05:07 34° SSE 23:06:40 54° ESE 23:11:42 10° NNE
Cosmos 990 Rocket 3.9 23:04:48 23° SSW 23:08:02 89° WNW 23:13:12 10° NNE
Cosmos 2221 Rocket 3.6 23:07:37 28° SSW 23:09:52 75° W 23:14:19 10° N
Cosmos 1328 3.7 23:09:17 39° S 23:10:36 70° E 23:14:28 10° NNE
Okean 1 Rocket 3.0 23:07:48 10° NNW 23:12:12 78° W 23:14:06 34° S
Sich 1 Rocket 4.1 23:11:00 10° NNW 23:15:13 47° W 23:17:10 28° SSW
Cosmos 1295 Rocket 4.4 23:12:40 26° S 23:16:15 80° E 23:22:27 10° NNE
Meteor 1-21 Rocket 4.4 23:21:20 29° SSE 23:24:16 63° E 23:29:49 10° NNE
Cosmos 1680 Rocket 3.9 23:19:54 10° NNW 23:25:04 59° ENE 23:28:15 23° SE
Cosmos 1025 Rocket 2.9 23:23:54 36° S 23:25:35 76° E 23:29:53 10° NNE
Cosmos 372 Rocket 4.2 23:26:39 31° S 23:28:59 58° ESE 23:34:07 10° NNE
SL-16 R/B 2.6 23:23:42 10° NW 23:29:10 49° WSW 23:31:50 28° SSW
Cosmos 2237 Rocket 4.2 23:25:51 10° WNW 23:29:10 16° W 23:32:05 11° SW
Cosmos 2112 Rocket 4.4 23:26:17 10° NNW 23:31:25 57° ENE 23:34:41 22° SE
Cosmos 1975 Rocket 3.6 23:31:37 31° SE 23:33:15 47° E 23:37:31 10° NNE
H-2A R/B 3.5 23:32:04 26° SW 23:33:41 35° W 23:37:31 10° NNW
Cosmos 1606 3.9 23:31:06 10° N 23:34:20 30° ENE 23:35:43 23° ESE
Cosmos 1943 3.4 23:29:06 10° NNW 23:34:43 68° ENE 23:38:26 22° SE
Cosmos 2227 Rocket 3.2 23:30:18 10° SW 23:35:40 43° NW 23:41:05 10° NNE
Cosmos 2082 3.6 23:36:07 25° SSW 23:39:30 89° ESE 23:45:10 10° NNE
Nadezhda 3 Rocket 4.0 23:33:46 10° NNW 23:40:00 75° W 23:43:26 28° S
Cosmos 1455 Rocket 3.0 23:35:53 10° N 23:40:22 89° ENE 23:42:11 36° S
NOSS 3-2 (A) 3.4 23:35:54 13° SW 23:40:37 74° NW 23:47:00 10° NE
Cosmos 1825 3.5 23:40:07 20° WSW 23:41:36 27° WNW 23:44:36 10° NNW
BREEZE-M DEB (TANK) 3.4 23:41:06 10° W 23:43:52 86° N 23:50:41 10° E
Meteor 2-1 Rocket 4.4 23:40:20 10° N 23:46:13 69° ENE 23:49:33 26° SSE
NOSS 3-2 (C) 3.2 23:49:28 28° SSW 23:52:23 70° SE 23:58:37 10° NE
Cosmos 2228 4.2 23:49:36 10° N 23:53:36 36° ENE 23:55:54 20° SE
Cosmos 2297 Rocket 4.5 23:50:57 10° W 23:55:16 22° NW 23:59:35 10° N
